アトラス彗星

C/2017 K4 ( ATLAS )

English version
Home page
Updated on July 30, 2018

---------------------------------------------------------------------

・ プロフィール

発見日 2017年5月26日
発見光度 17.0等
発見者 Asteroid Terrestrial-impact Last Alert System (ATLAS) Team

・ 写真集

・ 軌道要素

Epoch 2018 Jan. 2.0 TT = JDT 2458120.5
T 2018 Jan. 8.03172 TT                                  MPCW
q   2.6480816            (2000.0)            P               Q
n   0.00661496     Peri.   15.10829     +0.68513621     +0.68370443
a  28.1050747      Node   298.89794     -0.69453050     +0.50918058
e   0.9057792      Incl.   16.67889     -0.21958087     +0.52276514
P 149
From 239 observations 2017 May 26-2018 May 21, mean residual 0".4.

・ 星図

・ 光度変化

        m1 = 9.2 + 5 logΔ + 10.0 log r(t + 50)

---------------------------------------------------------------------

軌道要素はM.P.E.C. 2018-K95に掲載されたものです。
星図はステラナビゲータ Ver.10 (アストロアーツ) で作成したものです。
光度グラフはComet for Windowsで作成したものです。

---------------------------------------------------------------------

Copyright(C) Seiichi Yoshida (comet@aerith.net). All rights reserved.